{"data":{"norad_id":56732,"epoch":"2026-05-25T04:54:36.122400Z","epoch_age_seconds":60583,"freshness":"FRESH","line1":"1 56732U 23069B   26145.20458475  .00003143  00000+0  19905-3 0  9993","line2":"2 56732  41.0075 199.5404 0009436  88.5551 271.6343 15.10324843166750","mean_motion":15.10324843,"eccentricity":0.0009436,"inclination_deg":41.0075,"raan_deg":199.5404,"arg_perigee_deg":88.5551,"mean_anomaly_deg":271.6343,"bstar":0.00019905,"rev_number":16675,"period_min":95.343727322904,"perigee_km":528.68510382267,"apogee_km":541.73196951947,"semimajor_km":6913.3455366711,"source":"CELESTRAK","updated_at":"2026-05-25T13:37:59.659379Z"}}